period_start,C,m1,H,J0,J1,J2,J3,J4,J5,JA,JB,JC,JD,JJ,JK,JN,#
2014-04-24 00:00:54,0.13,1.36,0.00,19.22,27.27,28.71,6.02,28.96,999.51,2038.81,2927.05,2939.00,3186.00,349.66,322.60,11.01,0000 0000 0000 0000 000000
2014-04-24 00:01:54,0.12,1.36,0.00,19.23,27.27,28.74,5.98,29.04,999.51,2038.87,2927.01,2939.00,3185.98,349.90,322.07,11.02,0000 0000 0000 0000 000000
2014-04-24 00:02:55,0.06,1.36,0.00,19.27,27.27,28.72,5.96,29.17,999.45,2038.89,2927.00,2939.00,3185.89,348.46,321.55,11.03,0000 0000 0000 0000 000000
2014-04-24 00:03:55,0.03,1.36,0.00,19.28,27.27,28.72,5.74,29.13,999.41,2038.92,2926.96,2938.98,3185.63,348.50,321.15,11.03,0000 0000 0000 0000 000000
2014-04-24 00:04:55,0.06,1.36,0.00,19.26,27.26,28.65,5.89,29.04,999.41,2038.89,2926.71,2938.95,3185.27,349.80,322.37,11.04,0000 0000 0000 0000 000000
2014-04-24 00:05:55,0.05,1.36,0.00,19.29,27.25,28.67,5.86,29.08,999.45,2038.81,2926.39,2938.88,3185.10,349.21,321.82,11.04,0000 0000 0000 0000 000000
2014-04-24 00:06:56,0.04,1.36,0.00,19.30,27.25,28.70,5.95,29.04,999.46,2038.81,2926.15,2938.64,3185.03,349.89,322.14,11.05,0000 0000 0000 0000 000000
2014-04-24 00:07:56,0.12,1.36,0.00,19.28,27.25,28.67,5.81,28.96,999.49,2038.88,2926.05,2938.48,3185.01,348.31,321.32,11.06,0000 0000 0000 0000 000000
2014-04-24 00:08:56,0.11,1.36,0.00,19.30,27.25,28.66,5.98,28.96,999.45,2038.89,2926.01,2938.25,3185.00,350.42,322.87,11.06,0000 0000 0000 0000 000000
2014-04-24 00:09:57,0.05,1.36,0.00,19.29,27.25,28.63,6.04,29.17,999.39,2038.92,2925.93,2938.11,3185.00,349.97,322.49,11.07,0000 0000 0000 0000 000000
2014-04-24 00:10:57,0.07,1.36,0.00,19.29,27.25,28.59,6.03,29.00,999.38,2038.94,2925.75,2938.05,3184.98,350.29,322.78,11.07,0000 0000 0000 0000 000000
2014-04-24 00:11:57,0.06,1.36,0.00,19.26,27.25,28.57,5.92,28.96,999.33,2038.95,2925.41,2938.01,3184.84,349.00,321.61,11.08,0000 0000 0000 0000 000000
2014-04-24 00:12:57,0.08,1.36,0.00,19.24,27.25,28.60,5.92,29.04,999.38,2038.95,2925.16,2938.00,3184.50,350.06,322.61,11.09,0000 0000 0000 0000 000000
2014-04-24 00:13:58,0.10,1.36,0.00,19.25,27.24,28.58,5.92,29.21,999.42,2038.95,2925.05,2938.00,3184.21,349.32,322.31,11.09,0000 0000 0000 0000 000000
2014-04-24 00:14:58,0.06,1.36,0.00,19.25,27.23,28.57,5.98,29.04,999.37,2038.97,2924.96,2938.00,3184.08,349.10,321.73,11.10,0000 0000 0000 0000 000000
2014-04-24 00:15:58,0.04,1.36,0.00,19.25,27.23,28.56,6.03,29.25,999.30,2038.98,2924.80,2938.00,3184.04,349.82,321.81,11.10,0000 0000 0000 0000 000000
2014-04-24 00:16:58,0.04,1.36,0.00,19.24,27.22,28.59,6.10,29.25,999.23,2038.99,2924.37,2938.00,3184.01,350.26,322.47,11.11,0000 0000 0000 0000 000000
2014-04-24 00:17:59,0.06,1.36,0.00,19.22,27.22,28.56,6.01,28.92,999.25,2038.99,2924.16,2937.94,3184.00,350.23,322.50,11.11,0000 0000 0000 0000 000000
2014-04-24 00:18:59,0.05,1.36,0.00,19.19,27.22,28.59,6.04,28.96,999.39,2038.99,2924.05,2937.89,3183.99,350.06,322.46,11.12,0000 0000 0000 0000 000000
2014-04-24 00:19:59,0.03,1.36,0.00,19.18,27.22,28.61,6.12,28.92,999.49,2038.98,2924.02,2937.78,3183.97,349.95,322.62,11.13,0000 0000 0000 0000 000000
2014-04-24 00:21:00,0.03,1.36,0.00,19.17,27.22,28.57,5.99,29.00,999.52,2038.99,2924.00,2937.66,3183.97,349.82,322.54,11.13,0000 0000 0000 0000 000000
2014-04-24 00:22:00,0.02,1.36,0.00,19.16,27.22,28.53,6.01,29.00,999.53,2038.99,2924.00,2937.54,3183.91,350.22,322.91,11.14,0000 0000 0000 0000 000000
2014-04-24 00:23:00,0.04,1.36,0.00,19.15,27.21,28.52,6.03,28.92,999.50,2038.99,2923.99,2937.38,3183.65,349.99,322.69,11.14,0000 0000 0000 0000 000000
2014-04-24 00:24:00,0.07,1.36,0.00,19.15,27.20,28.57,6.07,29.29,999.50,2038.99,2923.97,2937.22,3183.35,349.93,322.64,11.15,0000 0000 0000 0000 000000
2014-04-24 00:25:01,0.08,1.36,0.00,19.15,27.20,28.54,5.98,29.21,999.51,2038.98,2923.85,2937.09,3183.14,349.67,322.41,11.16,0000 0000 0000 0000 000000
2014-04-24 00:26:01,0.07,1.37,0.00,19.16,27.20,28.59,6.06,29.42,999.53,2038.99,2923.45,2937.03,3183.05,350.71,322.94,11.16,0000 0000 0000 0000 000000
2014-04-24 00:27:01,0.09,1.37,0.00,19.19,27.20,28.54,5.97,29.21,999.53,2038.99,2923.17,2937.01,3183.01,349.38,321.84,11.17,0000 0000 0000 0000 000000
2014-04-24 00:28:01,0.05,1.37,0.00,19.19,27.20,28.57,5.98,29.04,999.53,2038.99,2923.06,2937.00,3183.00,350.10,323.55,11.17,0000 0000 0000 0000 000000
2014-04-24 00:29:01,0.01,1.37,0.00,19.18,27.19,28.57,6.06,28.92,999.53,2038.99,2923.02,2937.00,3182.99,349.42,322.44,11.18,0000 0000 0000 0000 000000
2014-04-24 00:30:02,0.00,1.37,0.00,19.22,27.19,28.54,6.17,28.96,999.53,2038.99,2923.00,2937.00,3182.97,350.25,323.13,11.18,0000 0000 0000 0000 000000
2014-04-24 00:31:02,0.00,1.37,0.00,19.23,27.18,28.54,5.94,28.75,999.53,2038.99,2923.00,2937.00,3182.98,350.11,322.72,11.19,0000 0000 0000 0000 000000
2014-04-24 00:32:02,0.00,1.37,0.00,19.22,27.17,28.56,6.08,29.04,999.53,2038.99,2922.99,2937.00,3182.90,350.34,322.95,11.20,0000 0000 0000 0000 000000
2014-04-24 00:33:03,0.01,1.37,0.00,19.20,27.17,28.59,6.14,29.08,999.53,2038.99,2922.97,2937.00,3182.66,349.97,322.94,11.20,0000 0000 0000 0000 000000
2014-04-24 00:34:03,0.05,1.37,0.00,19.22,27.17,28.58,6.12,29.04,999.53,2038.99,2922.87,2937.00,3182.38,349.85,322.49,11.21,0000 0000 0000 0000 000000
2014-04-24 00:35:03,0.05,1.37,0.00,19.26,27.17,28.59,6.03,29.08,999.53,2038.99,2922.55,2936.98,3182.17,350.24,322.82,11.21,0000 0000 0000 0000 000000
2014-04-24 00:36:03,0.09,1.37,0.00,19.26,27.17,28.57,5.93,28.88,999.53,2038.99,2922.25,2936.98,3182.07,349.09,321.75,11.22,0000 0000 0000 0000 000000
2014-04-24 00:37:03,0.04,1.37,0.00,19.27,27.17,28.56,5.98,29.13,999.53,2038.99,2922.11,2936.94,3182.04,350.05,322.63,11.23,0000 0000 0000 0000 000000
2014-04-24 00:38:04,0.03,1.37,0.00,19.25,27.16,28.55,6.01,29.13,999.53,2038.99,2922.04,2936.90,3182.01,349.51,322.13,11.23,0000 0000 0000 0000 000000
2014-04-24 00:39:04,0.02,1.37,0.00,19.22,27.15,28.57,6.04,29.04,999.53,2038.99,2922.01,2936.72,3182.00,349.58,322.09,11.24,0000 0000 0000 0000 000000
2014-04-24 00:40:04,0.05,1.37,0.00,19.20,27.15,28.53,5.98,29.08,999.53,2038.99,2922.00,2936.42,3181.98,349.46,322.16,11.24,0000 0000 0000 0000 000000
2014-04-24 00:41:04,0.08,1.37,0.00,19.16,27.15,28.56,5.98,29.00,999.53,2038.99,2921.94,2936.28,3181.94,350.24,322.49,11.25,0000 0000 0000 0000 000000
2014-04-24 00:42:04,0.05,1.37,0.00,19.15,27.15,28.54,6.08,29.25,999.53,2038.99,2921.67,2936.14,3181.76,350.13,322.85,11.26,0000 0000 0000 0000 000000
2014-04-24 00:43:05,0.11,1.37,0.00,19.14,27.15,28.51,5.92,29.17,999.53,2038.99,2921.37,2936.08,3181.47,350.10,322.82,11.26,0000 0000 0000 0000 000000
2014-04-24 00:44:05,0.10,1.37,0.00,19.13,27.15,28.47,5.86,28.83,999.53,2038.99,2921.16,2936.04,3181.22,349.26,322.25,11.27,0000 0000 0000 0000 000000
2014-04-24 00:45:05,0.06,1.37,0.00,19.18,27.14,28.47,6.15,28.88,999.53,2039.00,2921.06,2936.02,3181.09,349.82,322.52,11.27,0000 0000 0000 0000 000000
2014-04-24 00:46:05,0.04,1.37,0.00,19.20,27.13,28.47,6.04,29.04,999.53,2039.00,2921.02,2936.01,3181.03,349.38,322.26,11.28,0000 0000 0000 0000 000000
2014-04-24 00:47:05,0.00,1.37,0.00,19.20,27.12,28.47,5.97,28.88,999.53,2039.00,2921.00,2936.00,3181.02,349.37,321.98,11.28,0000 0000 0000 0000 000000
2014-04-24 00:48:05,0.00,1.37,0.00,19.22,27.12,28.48,6.06,29.00,999.53,2039.00,2921.00,2936.00,3181.00,349.40,322.14,11.29,0000 0000 0000 0000 000000
2014-04-24 00:49:06,0.00,1.37,0.00,19.20,27.12,28.45,6.03,28.96,999.53,2039.00,2920.94,2936.00,3180.99,350.00,322.67,11.30,0000 0000 0000 0000 000000
2014-04-24 00:50:06,0.01,1.37,0.00,19.20,27.12,28.45,6.06,29.04,999.53,2039.00,2920.81,2935.98,3180.98,349.52,322.44,11.30,0000 0000 0000 0000 000000
2014-04-24 00:51:06,0.02,1.37,0.00,19.20,27.12,28.47,5.97,29.13,999.53,2039.00,2920.49,2935.98,3180.92,349.81,322.48,11.31,0000 0000 0000 0000 000000
2014-04-24 00:52:06,0.07,1.37,0.00,19.20,27.12,28.45,6.09,29.08,999.54,2039.00,2920.20,2935.99,3180.76,350.24,323.15,11.31,0000 0000 0000 0000 000000
2014-04-24 00:53:06,0.06,1.37,0.00,19.24,27.12,28.48,6.17,29.21,999.54,2039.00,2920.07,2935.99,3180.41,350.79,323.18,11.32,0000 0000 0000 0000 000000
2014-04-24 00:54:06,0.07,1.37,0.00,19.29,27.10,28.52,5.98,29.00,999.53,2039.00,2920.02,2935.99,3180.19,349.69,322.56,11.33,0000 0000 0000 0000 000000
2014-04-24 00:55:07,0.03,1.37,0.00,19.30,27.10,28.53,6.13,28.92,999.54,2039.00,2920.00,2935.94,3180.09,348.98,322.07,11.33,0000 0000 0000 0000 000000
2014-04-24 00:56:07,0.03,1.37,0.00,19.31,27.10,28.50,5.86,28.83,999.53,2039.00,2919.98,2935.89,3180.03,349.24,321.84,11.34,0000 0000 0000 0000 000000
2014-04-24 00:57:07,0.01,1.37,0.00,19.29,27.10,28.52,6.12,29.04,999.55,2039.00,2919.98,2935.88,3180.01,350.55,323.07,11.34,0000 0000 0000 0000 000000
2014-04-24 00:58:08,0.00,1.37,0.00,19.32,27.10,28.55,5.99,28.88,999.56,2039.00,2919.90,2935.85,3180.00,349.64,322.21,11.35,0000 0000 0000 0000 000000
2014-04-24 00:59:08,0.01,1.37,0.00,19.35,27.10,28.56,5.88,28.92,999.57,2039.01,2919.57,2935.74,3180.00,350.64,323.10,11.35,0000 0000 0000 0000 000000
2014-04-24 01:00:08,0.09,1.37,0.00,19.39,27.10,28.61,5.85,29.04,999.61,2039.01,2919.22,2935.41,3180.00,348.19,320.81,11.36,0000 0000 0000 0000 000000
2014-04-24 01:01:08,0.16,1.37,0.00,19.40,27.09,28.62,5.98,29.13,999.55,2039.00,2919.08,2935.15,3179.98,349.47,322.11,11.37,0000 0000 0000 0000 000000
2014-04-24 01:02:09,0.07,1.38,0.00,19.39,27.09,28.61,6.16,29.17,999.57,2039.01,2919.02,2935.09,3179.94,351.03,323.39,11.37,0000 0000 0000 0000 000000
2014-04-24 01:03:09,0.02,1.38,0.00,19.37,27.08,28.57,5.96,29.04,999.58,2039.04,2918.99,2935.05,3179.75,349.49,322.02,11.38,0000 0000 0000 0000 000000
2014-04-24 01:04:09,0.08,1.38,0.00,19.34,27.07,28.60,6.02,29.08,999.55,2039.03,2918.90,2935.01,3179.34,349.52,322.47,11.38,0000 0000 0000 0000 000000
2014-04-24 01:05:09,0.07,1.38,0.00,19.32,27.07,28.61,6.05,29.08,999.56,2039.02,2918.62,2935.00,3179.14,350.30,322.82,11.39,0000 0000 0000 0000 000000
2014-04-24 01:06:10,0.05,1.38,0.00,19.32,27.07,28.62,6.11,29.33,999.53,2039.03,2918.28,2935.00,3179.06,350.26,322.78,11.40,0000 0000 0000 0000 000000
2014-04-24 01:07:10,0.07,1.38,0.00,19.30,27.07,28.59,6.01,29.33,999.53,2039.03,2918.15,2935.00,3179.02,349.94,322.50,11.40,0000 0000 0000 0000 000000
2014-04-24 01:08:10,0.02,1.38,0.00,19.25,27.07,28.56,6.15,29.29,999.53,2039.03,2918.06,2935.00,3179.00,350.23,322.82,11.41,0000 0000 0000 0000 000000
2014-04-24 01:09:10,0.00,1.38,0.00,19.19,27.07,28.53,6.05,29.21,999.53,2039.05,2918.02,2934.99,3178.99,349.62,322.14,11.41,0000 0000 0000 0000 000000
2014-04-24 01:10:11,0.03,1.38,0.00,19.18,27.07,28.48,5.91,29.08,999.53,2039.03,2917.99,2934.97,3178.98,348.88,321.95,11.42,0000 0000 0000 0000 000000
2014-04-24 01:11:11,0.00,1.38,0.00,19.23,27.07,28.56,6.09,29.17,999.53,2039.05,2917.95,2934.97,3178.97,349.65,322.31,11.42,0000 0000 0000 0000 000000
2014-04-24 01:12:11,0.03,1.38,0.00,19.17,27.06,28.50,5.96,29.21,999.53,2039.07,2917.80,2934.90,3178.85,349.36,322.12,11.43,0000 0000 0000 0000 000000
2014-04-24 01:13:11,0.06,1.38,0.00,19.13,27.05,28.50,5.99,29.29,999.53,2039.07,2917.46,2934.81,3178.53,350.55,323.25,11.44,0000 0000 0000 0000 000000
2014-04-24 01:14:12,0.14,1.38,0.00,19.11,27.05,28.47,6.10,29.17,999.53,2039.05,2917.19,2934.57,3178.24,349.99,322.48,11.44,0000 0000 0000 0000 000000
2014-04-24 01:15:12,0.13,1.38,0.00,19.12,27.05,28.43,6.10,29.21,999.53,2039.03,2917.07,2934.29,3178.11,349.77,322.81,11.45,0000 0000 0000 0000 000000
2014-04-24 01:16:12,0.09,1.38,0.00,19.10,27.05,28.43,5.88,29.08,999.53,2039.03,2917.02,2934.12,3178.05,349.90,322.68,11.45,0000 0000 0000 0000 000000
2014-04-24 01:17:12,0.04,1.38,0.00,19.07,27.05,28.40,6.04,29.21,999.53,2039.01,2917.00,2934.07,3178.01,349.68,322.50,11.46,0000 0000 0000 0000 000000
2014-04-24 01:18:12,0.01,1.38,0.00,19.07,27.05,28.39,6.17,29.29,999.53,2039.03,2916.99,2934.04,3178.00,350.44,323.21,11.47,0000 0000 0000 0000 000000
2014-04-24 01:19:13,0.04,1.38,0.00,19.07,27.05,28.41,5.92,29.00,999.53,2039.04,2916.82,2934.03,3177.98,349.24,322.10,11.47,0000 0000 0000 0000 000000
2014-04-24 01:20:13,0.03,1.38,0.00,19.11,27.05,28.37,6.04,29.33,999.53,2039.04,2916.46,2934.01,3177.96,350.38,323.12,11.48,0000 0000 0000 0000 000000
2014-04-24 01:21:13,0.07,1.38,0.00,19.09,27.04,28.33,6.02,29.42,999.53,2039.02,2916.18,2934.00,3177.83,349.78,322.58,11.48,0000 0000 0000 0000 000000
2014-04-24 01:22:13,0.04,1.38,0.00,19.09,27.03,28.36,6.10,29.33,999.53,2039.00,2916.07,2934.00,3177.54,350.32,323.07,11.49,0000 0000 0000 0000 000000
2014-04-24 01:23:13,0.05,1.38,0.00,19.11,27.02,28.33,6.22,29.50,999.53,2039.02,2916.02,2934.00,3177.24,349.99,322.54,11.49,0000 0000 0000 0000 000000
2014-04-24 01:24:14,0.06,1.38,0.00,19.10,27.02,28.31,6.03,29.46,999.54,2039.09,2916.00,2934.00,3177.09,350.30,323.05,11.50,0000 0000 0000 0000 000000
2014-04-24 01:25:14,0.10,1.38,0.00,19.12,27.02,28.37,5.92,29.54,999.53,2039.13,2915.98,2933.99,3177.03,349.73,322.00,11.51,0000 0000 0000 0000 000000
2014-04-24 01:26:14,0.03,1.38,0.00,19.18,27.02,28.34,6.14,29.54,999.53,2039.17,2915.78,2933.98,3177.01,351.01,323.09,11.51,0000 0000 0000 0000 000000
2014-04-24 01:27:14,0.09,1.38,0.00,19.19,27.02,28.32,6.01,29.29,999.53,2039.23,2915.41,2933.96,3177.00,349.58,322.28,11.52,0000 0000 0000 0000 000000
2014-04-24 01:28:14,0.07,1.38,0.00,19.16,27.02,28.35,5.93,29.38,999.56,2039.27,2915.21,2933.95,3176.99,349.64,322.15,11.52,0000 0000 0000 0000 000000
2014-04-24 01:29:15,0.05,1.38,0.00,19.21,27.02,28.33,6.23,29.42,999.54,2039.36,2915.18,2933.96,3176.98,350.03,322.69,11.53,0000 0000 0000 0000 000000
2014-04-24 01:30:15,0.07,1.38,0.00,19.22,27.01,28.33,6.17,29.46,999.54,2039.35,2915.13,2933.95,3176.96,350.34,322.74,11.54,0000 0000 0000 0000 000000
2014-04-24 01:31:15,0.02,1.39,0.00,19.19,27.00,28.32,6.14,29.63,999.53,2039.30,2915.05,2933.84,3176.87,350.62,322.60,11.54,0000 0000 0000 0000 000000
2014-04-24 01:32:15,0.01,1.39,0.00,19.17,27.00,28.35,5.91,29.25,999.53,2039.27,2915.02,2933.66,3176.66,350.10,322.70,11.55,0000 0000 0000 0000 000000
2014-04-24 01:33:16,0.09,1.39,0.00,19.17,27.00,28.34,6.11,29.46,999.53,2039.48,2915.00,2933.53,3176.43,349.86,322.57,11.55,0000 0000 0000 0000 000000
2014-04-24 01:34:16,0.22,1.39,0.00,19.16,27.00,28.31,5.93,29.50,999.53,2039.61,2915.00,2933.40,3176.22,349.32,322.53,11.56,0000 0000 0000 0000 000000
2014-04-24 01:35:16,0.16,1.39,0.00,19.14,27.00,28.31,6.08,29.42,999.53,2039.61,2914.99,2933.26,3176.08,349.72,322.44,11.56,0000 0000 0000 0000 000000
2014-04-24 01:36:16,0.07,1.39,0.00,19.14,27.00,28.32,5.84,29.42,999.54,2039.59,2914.84,2933.20,3176.03,349.11,321.90,11.57,0000 0000 0000 0000 000000
2014-04-24 01:37:17,0.03,1.39,0.00,19.12,27.00,28.31,6.17,29.42,999.53,2039.53,2914.43,2933.08,3176.01,350.28,323.08,11.58,0000 0000 0000 0000 000000
2014-04-24 01:38:17,0.02,1.39,0.00,19.12,26.99,28.31,5.83,29.54,999.58,2039.57,2914.19,2933.06,3176.00,349.97,322.74,11.58,0000 0000 0000 0000 000000
2014-04-24 01:39:17,0.09,1.39,0.00,19.09,26.99,28.33,5.98,29.25,999.55,2039.66,2914.08,2933.03,3176.00,349.89,322.69,11.59,0000 0000 0000 0000 000000
2014-04-24 01:40:17,0.07,1.39,0.00,19.04,26.98,28.32,5.88,29.42,999.54,2039.66,2914.03,2933.03,3175.98,349.22,322.12,11.59,0000 0000 0000 0000 000000
2014-04-24 01:41:18,0.00,1.39,0.00,19.01,26.97,28.35,6.04,29.63,999.55,2039.61,2913.98,2933.01,3175.88,350.82,323.63,11.60,0000 0000 0000 0000 000000
2014-04-24 01:42:18,-0.01,1.39,0.00,19.00,26.97,28.34,6.23,29.67,999.55,2039.46,2913.84,2933.00,3175.55,350.43,323.28,11.61,0000 0000 0000 0000 000000
2014-04-24 01:43:18,-0.07,1.39,0.00,19.00,26.97,28.31,6.21,29.58,999.56,2039.40,2913.50,2932.99,3175.21,351.12,323.97,11.61,0000 0000 0000 0000 000000
2014-04-24 01:44:18,0.07,1.39,0.00,19.00,26.97,28.28,6.09,29.67,999.56,2039.48,2913.22,2932.99,3175.10,350.57,323.41,11.62,0000 0000 0000 0000 000000
2014-04-24 01:45:18,0.15,1.39,0.00,19.02,26.97,28.28,5.93,29.46,999.56,2039.42,2913.08,2932.97,3175.05,349.06,321.82,11.62,0000 0000 0000 0000 000000
2014-04-24 01:46:19,0.01,1.39,0.00,18.99,26.97,28.26,6.02,29.50,999.58,2039.42,2913.03,2932.94,3175.01,350.43,323.08,11.63,0000 0000 0000 0000 000000
2014-04-24 01:47:19,0.04,1.39,0.00,18.99,26.97,28.22,5.84,29.46,999.65,2039.44,2913.00,2932.89,3175.00,350.31,323.00,11.64,0000 0000 0000 0000 000000
2014-04-24 01:48:19,0.00,1.39,0.00,18.97,26.96,28.22,5.83,29.54,999.70,2039.43,2912.97,2932.74,3174.99,349.14,322.03,11.64,0000 0000 0000 0000 000000
2014-04-24 01:49:19,0.02,1.39,0.00,18.97,26.95,28.25,6.02,29.50,999.78,2039.35,2912.70,2932.40,3174.88,350.25,323.23,11.65,0000 0000 0000 0000 000000
2014-04-24 01:50:20,0.07,1.39,0.00,18.97,26.95,28.26,5.92,29.54,999.88,2039.29,2912.33,2932.18,3174.57,349.63,322.69,11.65,0000 0000 0000 0000 000000
2014-04-24 01:51:20,0.13,1.39,0.00,18.99,26.95,28.25,5.99,29.42,999.81,2039.25,2912.12,2932.08,3174.23,349.99,322.72,11.66,0000 0000 0000 0000 000000
2014-04-24 01:52:20,0.06,1.39,0.00,18.97,26.95,28.23,5.97,29.50,999.95,2039.16,2912.04,2932.03,3174.08,349.62,322.70,11.66,0000 0000 0000 0000 000000
2014-04-24 01:53:20,-0.03,1.39,0.00,18.97,26.95,28.23,5.99,29.58,999.98,2039.09,2912.01,2932.01,3174.03,349.90,322.60,11.67,0000 0000 0000 0000 000000
2014-04-24 01:54:21,-0.03,1.39,0.00,18.98,26.95,28.25,5.93,29.63,999.96,2039.12,2911.99,2932.00,3174.01,350.47,323.48,11.68,0000 0000 0000 0000 000000
2014-04-24 01:55:21,0.05,1.39,0.00,18.97,26.94,28.26,5.95,29.67,999.95,2039.12,2911.85,2932.00,3174.00,349.85,323.17,11.68,0000 0000 0000 0000 000000
2014-04-24 01:56:21,0.00,1.39,0.00,18.96,26.94,28.26,5.93,29.58,999.93,2039.11,2911.53,2932.00,3173.96,349.65,322.48,11.69,0000 0000 0000 0000 000000
2014-04-24 01:57:21,0.02,1.39,0.00,18.98,26.93,28.23,5.95,29.46,999.97,2039.12,2911.24,2932.00,3173.84,348.66,321.88,11.69,0000 0000 0000 0000 000000
2014-04-24 01:58:22,0.11,1.39,0.00,18.97,26.93,28.21,6.13,29.63,1000.00,2039.11,2911.08,2931.99,3173.50,350.04,323.16,11.70,0000 0000 0000 0000 000000
2014-04-24 01:59:22,0.07,1.39,0.00,18.96,26.92,28.23,6.01,29.58,1000.01,2039.13,2911.02,2931.96,3173.23,350.73,323.76,11.71,0000 0000 0000 0000 000000
2014-04-24 02:00:22,0.07,1.39,0.00,18.95,26.92,28.26,6.04,29.63,1000.01,2039.15,2910.98,2931.86,3173.08,350.64,323.68,11.71,0000 0000 0000 0000 000000
2014-04-24 02:01:22,0.06,1.39,0.00,18.92,26.92,28.22,5.82,29.58,1000.01,2039.09,2910.60,2931.57,3173.03,349.76,323.33,11.72,0000 0000 0000 0000 000000
2014-04-24 02:02:23,0.10,1.39,0.00,18.91,26.92,28.19,6.03,29.46,1000.01,2039.17,2910.26,2931.39,3173.01,349.82,322.97,11.72,0000 0000 0000 0000 000000
2014-04-24 02:03:23,0.16,1.40,0.00,18.94,26.92,28.20,6.16,29.54,1000.00,2039.23,2910.10,2931.29,3173.00,349.85,322.97,11.73,0000 0000 0000 0000 000000
2014-04-24 02:04:23,0.09,1.40,0.00,18.93,26.92,28.22,5.91,29.67,1000.00,2039.29,2910.03,2931.18,3172.99,349.59,322.26,11.73,0000 0000 0000 0000 000000
2014-04-24 02:05:24,0.12,1.40,0.00,18.93,26.92,28.19,6.12,29.79,999.98,2039.45,2910.01,2931.11,3172.97,350.11,323.28,11.74,0000 0000 0000 0000 000000
2014-04-24 02:06:24,0.13,1.40,0.00,18.95,26.91,28.19,6.18,29.92,999.94,2039.44,2909.99,2931.04,3172.81,350.17,323.24,11.75,0000 0000 0000 0000 000000
2014-04-24 02:07:24,0.03,1.40,0.00,18.97,26.90,28.22,6.08,29.71,1000.00,2039.39,2909.94,2931.01,3172.45,350.13,323.19,11.75,0000 0000 0000 0000 000000
2014-04-24 02:08:25,-0.01,1.40,0.00,18.99,26.90,28.23,5.86,29.54,999.98,2039.29,2909.74,2931.00,3172.21,349.06,322.22,11.76,0000 0000 0000 0000 000000
2014-04-24 02:09:25,0.02,1.40,0.00,18.99,26.90,28.19,5.96,29.63,1000.00,2039.34,2909.38,2931.00,3172.08,349.80,322.86,11.76,0000 0000 0000 0000 000000
2014-04-24 02:10:25,0.11,1.40,0.00,19.01,26.90,28.23,6.01,29.83,1000.01,2039.32,2909.15,2931.00,3172.03,349.59,323.00,11.77,0000 0000 0000 0000 000000
2014-04-24 02:11:25,0.03,1.40,0.00,19.00,26.90,28.23,5.90,29.67,1000.01,2039.35,2909.05,2931.00,3172.01,349.53,322.32,11.78,0000 0000 0000 0000 000000
2014-04-24 02:12:26,0.03,1.40,0.00,18.98,26.90,28.21,6.03,29.67,1000.01,2039.31,2909.01,2931.00,3172.00,350.35,323.09,11.78,0000 0000 0000 0000 000000
2014-04-24 02:13:26,0.03,1.40,0.00,18.94,26.90,28.22,6.23,29.67,1000.01,2039.48,2908.99,2931.00,3172.00,350.35,323.43,11.79,0000 0000 0000 0000 000000
2014-04-24 02:14:26,0.12,1.40,0.00,18.92,26.89,28.22,6.30,29.79,1000.01,2039.56,2908.88,2930.97,3171.99,350.35,323.65,11.79,0000 0000 0000 0000 000000
2014-04-24 02:15:26,0.09,1.40,0.00,18.92,26.89,28.21,6.11,29.63,1000.01,2039.50,2908.51,2930.93,3171.75,349.56,323.35,11.80,0000 0000 0000 0000 000000
2014-04-24 02:16:26,0.06,1.40,0.00,18.94,26.88,28.24,5.99,29.67,999.99,2039.56,2908.19,2930.81,3171.42,349.57,322.78,11.81,0000 0000 0000 0000 000000
2014-04-24 02:17:27,0.17,1.40,0.00,18.98,26.87,28.28,6.01,29.71,999.95,2039.68,2908.07,2930.64,3171.18,350.31,322.81,11.81,0000 0000 0000 0000 000000
2014-04-24 02:18:27,0.15,1.40,0.00,19.00,26.87,28.34,5.98,29.83,999.93,2039.52,2908.02,2930.40,3171.08,350.47,323.44,11.82,0000 0000 0000 0000 000000
2014-04-24 02:19:27,-0.01,1.40,0.00,19.01,26.87,28.33,6.13,29.63,999.97,2039.65,2908.00,2930.27,3171.03,350.45,323.42,11.82,0000 0000 0000 0000 000000
2014-04-24 02:20:28,0.12,1.40,0.00,19.01,26.87,28.31,6.05,29.63,999.99,2039.74,2907.96,2930.16,3171.01,350.56,323.53,11.83,0000 0000 0000 0000 000000
2014-04-24 02:21:28,0.10,1.40,0.00,19.02,26.87,28.36,6.06,29.58,999.98,2039.71,2907.83,2930.06,3170.99,350.28,323.25,11.83,0000 0000 0000 0000 000000
2014-04-24 02:22:28,0.03,1.40,0.00,19.02,26.87,28.37,5.93,29.63,999.99,2039.77,2907.56,2930.03,3170.98,349.80,322.83,11.84,0000 0000 0000 0000 000000
2014-04-24 02:23:28,0.11,1.41,0.00,19.00,26.87,28.37,6.06,29.71,999.99,2039.84,2907.24,2930.02,3170.96,349.52,322.49,11.85,0000 0000 0000 0000 000000
2014-04-24 02:24:29,0.11,1.41,0.00,19.05,26.87,28.41,5.83,29.67,1000.01,2039.90,2907.09,2930.02,3170.85,349.14,322.30,11.85,0000 0000 0000 0000 000000
2014-04-24 02:25:29,0.07,1.41,0.00,19.05,26.87,28.42,6.02,29.79,1000.01,2039.87,2907.03,2930.00,3170.49,349.45,322.13,11.86,0000 0000 0000 0000 000000
2014-04-24 02:26:29,0.03,1.41,0.00,19.07,26.86,28.41,6.08,29.63,1000.01,2039.86,2907.00,2929.99,3170.20,350.64,323.92,11.86,0000 0000 0000 0000 000000
2014-04-24 02:27:29,0.03,1.41,0.00,19.00,26.85,28.40,6.01,29.58,999.99,2039.87,2906.97,2929.99,3170.08,349.54,322.61,11.87,0000 0000 0000 0000 000000
2014-04-24 02:28:30,0.05,1.41,0.00,18.98,26.85,28.43,6.07,29.63,1000.01,2039.93,2906.96,2929.99,3170.03,349.53,322.62,11.88,0000 0000 0000 0000 000000
2014-04-24 02:29:30,0.05,1.41,0.00,19.00,26.85,28.43,6.09,29.46,1000.01,2039.93,2906.67,2929.99,3170.01,350.45,323.66,11.88,0000 0000 0000 0000 000000
2014-04-24 02:30:30,0.06,1.41,0.00,18.97,26.85,28.39,6.13,29.54,1000.01,2039.94,2906.30,2929.99,3170.00,350.61,323.37,11.89,0000 0000 0000 0000 000000
2014-04-24 02:31:31,0.06,1.41,0.00,18.98,26.85,28.39,6.13,29.42,1000.03,2039.96,2906.12,2929.97,3170.00,350.34,323.11,11.89,0000 0000 0000 0000 000000
2014-04-24 02:32:31,0.05,1.41,0.00,18.97,26.85,28.36,6.27,29.46,1000.03,2039.91,2906.04,2929.91,3169.95,350.98,323.97,11.90,0000 0000 0000 0000 000000
2014-04-24 02:33:31,-0.01,1.41,0.00,18.98,26.85,28.33,5.99,29.63,1000.05,2039.82,2905.99,2929.82,3169.78,349.97,323.05,11.90,0000 0000 0000 0000 000000
2014-04-24 02:34:31,-0.02,1.41,0.00,19.03,26.85,28.36,5.86,29.50,1000.03,2039.87,2905.93,2929.74,3169.57,349.24,322.18,11.91,0000 0000 0000 0000 000000
2014-04-24 02:35:32,0.10,1.41,0.00,19.05,26.85,28.34,6.04,29.67,1000.12,2039.93,2905.63,2929.54,3169.26,349.76,323.36,11.92,0000 0000 0000 0000 000000
2014-04-24 02:36:32,0.17,1.41,0.00,19.08,26.84,28.34,6.02,29.67,1000.20,2039.95,2905.28,2929.34,3169.11,349.72,322.76,11.92,0000 0000 0000 0000 000000
2014-04-24 02:37:32,0.16,1.41,0.00,19.10,26.84,28.40,5.79,29.54,1000.13,2039.97,2905.11,2929.15,3169.04,349.76,322.74,11.93,0000 0000 0000 0000 000000